Location: La Oliva
(42.2466°N, 2.9955°E)
Time: 11:30:53
(UTC+00:00)

USA 186 - Pass Details

Date: 22 April 2021
Orbit: 262 x 462 km, 96.9° (Epoch: 09 May)

Event Time Altitude Azimuth Distance (km) Brightness Sun altitude
Exits shadow 19:46:59 - 184° (S) 2,370 5.3 -12.6°
Reaches altitude 10° 19:49:01 10° 192° (SSW) 1,533 4.4 -12.9°
Maximum altitude 19:52:05 36° 261° (W) 678 3.3 -13.4°
Drops below altitude 10° 19:55:01 10° 331° (NNW) 1,454 5.5 -13.8°
Sets 19:57:01 0° 340° (NNW) 2,278 6.4 -14.2°
